Regional Weather Roundup
Issued by NWS Albany, NY

Home | Current Version | Previous Version | Graphics & Text | Print | Product List | Glossary Off
Versions: 1 2 3 4 5 6 7 8 9 10 11 12 13 14 15 16 17 18 19 20 21 22 23 24 25 26 27 28 29 30 31 32 33 34 35 36 37 38 39 40 41 42 43 44 45 46 47 48 49 50

000
ASUS41 KALY 021610
RWRALY

NEW YORK STATE HOURLY WEATHER ROUNDUP
NATIONAL WEATHER SERVICE ALBANY NY
1200 PM EDT WED SEP 02 2015

NOTE: "FAIR" INDICATES FEW OR NO CLOUDS BELOW 12,000 FEET WITH NO
SIGNIFICANT WEATHER AND/OR NO OBSTRUCTIONS TO VISIBILITY.

NYZ032-033-038>043-046>054-057>066-NYZ062>081-021700-
EAST


CITY           SKY/WX    TMP DP  RH WIND       PRES   REMARKS
ALBANY         MOSUNNY   81  68  64 W3        30.00F
GLENS FALLS    SUNNY     77  64  64 VRB5      30.00F
POUGHKEEPSIE   SUNNY     85  65  51 SW5       29.99F
NEWBURGH       SUNNY     82  68  61 SW7       30.02
MONTGOMERY     MOSUNNY   86  65  49 VRB5      30.00F
WHITE PLAINS   PTSUNNY   85  63  47 SW6       30.00F
ISLIP          MOSUNNY   85  63  47 S14       29.99F
NEW YORK CITY  PTSUNNY   87  65  47 VRB6      29.99F
CENTRAL PARK   SUNNY     87  66  49 VRB3      30.02F
$$

NYZ005>009-017-018-044>046-055-056-021700-
CENTRAL


CITY           SKY/WX    TMP DP  RH WIND       PRES   REMARKS
FULTON         PTSUNNY   78  70  76 VRB6      30.03S
SYRACUSE       MOSUNNY   81  70  69 NW6       30.01F
ROME           PTSUNNY   73  67  81 VRB6      30.04F
ELMIRA         SUNNY     83  69  62 NE8       30.04F
BINGHAMTON     SUNNY     76  67  73 VRB3      30.08F
MONTICELLO     SUNNY     81  66  61 NW6       30.07F
$$

NYZ026>034-041>043-021700-
NORTH


CITY           SKY/WX    TMP DP  RH WIND       PRES   REMARKS
WATERTOWN      CLOUDY    74  69  85 SW7       30.01S
FORT DRUM      NOT AVBL
MASSENA        CLOUDY    73  67  81 W7        30.00S
SARANAC LAKE   MOSUNNY   76  66  71 SW7       30.03S
PLATTSBURGH    MOSUNNY   76  68  76 SE14      29.96F
$$

NYZ001>004-010>016-019>021-021700-
WEST


CITY           SKY/WX    TMP DP  RH WIND       PRES   REMARKS
NIAGARA FALLS  MOSUNNY   83  70  64 SW8       30.02F
BUFFALO        MOSUNNY   80  68  66 SW13      30.04F
DUNKIRK        SUNNY     80  70  71 SW12      30.06F
JAMESTOWN      PTSUNNY   79  66  65 W7        30.11F
WELLSVILLE     MOSUNNY   82  66  58 NW9       30.13F
ROCHESTER      MOSUNNY   82  69  64 W7        30.03F
PENN YAN       PTSUNNY   81  68  64 NW7       30.06S HAZE
$$

             KEY
       WCI = WIND CHILL INDEX
       VSB = VISIBILITY
       HX  = HEAT INDEX
$$


USA.gov is the U.S. government's official web portal to all federal, state and local government web resources and services.